Time,TemperatureF,DewpointF,PressureIn,WindDirection,WindDirectionDegrees,WindSpeedMPH,WindSpeedGustMPH,Humidity,HourlyPrecipIn,Conditions,Clouds,dailyrainin,SoftwareType,DateUTC
2017-03-24 00:01:00,50.3,48.0,-100.00,NNW,343,0.4,1.1,92,0.00,,,0.00,,2017-03-24 07:01:00,
2017-03-24 00:11:00,50.3,48.0,-100.00,NNW,343,0.4,1.1,92,0.00,,,0.00,,2017-03-24 07:11:00,
2017-03-24 00:16:00,50.3,48.0,-100.00,NNW,343,0.4,1.1,92,0.00,,,0.00,,2017-03-24 07:16:00,
2017-03-24 00:21:00,50.3,48.0,-100.00,NNW,343,0.4,1.1,92,0.00,,,0.00,,2017-03-24 07:21:00,
2017-03-24 00:31:00,50.3,48.0,-100.00,NNW,343,0.4,1.1,92,0.00,,,0.00,,2017-03-24 07:31:00,
2017-03-24 00:41:00,50.3,48.0,-100.00,NNW,343,0.4,1.1,92,0.00,,,0.00,,2017-03-24 07:41:00,
2017-03-24 00:46:00,50.3,48.0,-100.00,NNW,343,0.4,1.1,92,0.00,,,0.00,,2017-03-24 07:46:00,
2017-03-24 00:51:00,50.3,48.0,-100.00,NNW,343,0.4,1.1,92,0.00,,,0.00,,2017-03-24 07:51:00,
2017-03-24 00:56:00,50.3,48.0,-100.00,NNW,343,0.4,1.1,92,0.00,,,0.00,,2017-03-24 07:56:00,
2017-03-24 01:01:00,50.4,48.5,-100.00,WSW,246,0.8,2.0,93,0.00,,,0.00,,2017-03-24 08:01:00,
2017-03-24 01:06:00,50.4,48.5,-100.00,WSW,246,0.8,2.0,93,0.00,,,0.00,,2017-03-24 08:06:00,
2017-03-24 01:16:00,50.4,48.5,-100.00,WSW,246,0.8,2.0,93,0.00,,,0.00,,2017-03-24 08:16:00,
2017-03-24 01:21:00,50.4,48.5,-100.00,WSW,246,0.8,2.0,93,0.00,,,0.00,,2017-03-24 08:21:00,
2017-03-24 01:26:00,50.4,48.5,-100.00,WSW,246,0.8,2.0,93,0.00,,,0.00,,2017-03-24 08:26:00,
2017-03-24 01:31:00,50.4,48.5,-100.00,WSW,246,0.8,2.0,93,0.00,,,0.00,,2017-03-24 08:31:00,
2017-03-24 01:41:00,50.4,48.5,-100.00,WSW,246,0.8,2.0,93,0.00,,,0.00,,2017-03-24 08:41:00,
2017-03-24 01:46:00,50.4,48.5,-100.00,WSW,246,0.8,2.0,93,0.00,,,0.00,,2017-03-24 08:46:00,
2017-03-24 01:51:00,50.4,48.5,-100.00,WSW,246,0.8,2.0,93,0.00,,,0.00,,2017-03-24 08:51:00,
2017-03-24 01:56:00,50.4,48.5,-100.00,WSW,246,0.8,2.0,93,0.00,,,0.00,,2017-03-24 08:56:00,
2017-03-24 02:01:00,50.2,48.9,-100.00,SW,217,0.5,1.5,95,0.01,,,0.02,,2017-03-24 09:01:00,
2017-03-24 02:06:00,50.2,48.9,-100.00,SW,217,0.5,1.5,95,0.01,,,0.02,,2017-03-24 09:06:00,
2017-03-24 02:11:00,50.2,48.9,-100.00,SW,217,0.5,1.5,95,0.01,,,0.02,,2017-03-24 09:11:00,
2017-03-24 02:16:00,50.2,48.9,-100.00,SW,217,0.5,1.5,95,0.01,,,0.02,,2017-03-24 09:16:00,
2017-03-24 02:21:00,50.2,48.9,-100.00,SW,217,0.5,1.5,95,0.01,,,0.02,,2017-03-24 09:21:00,
2017-03-24 02:26:00,50.2,48.9,-100.00,SW,217,0.5,1.5,95,0.01,,,0.02,,2017-03-24 09:26:00,
2017-03-24 02:31:00,50.2,48.9,-100.00,SW,217,0.5,1.5,95,0.01,,,0.02,,2017-03-24 09:31:00,
2017-03-24 02:36:00,50.2,48.9,-100.00,SW,217,0.5,1.5,95,0.01,,,0.02,,2017-03-24 09:36:00,
2017-03-24 02:41:00,50.2,48.9,-100.00,SW,217,0.5,1.5,95,0.01,,,0.02,,2017-03-24 09:41:00,
2017-03-24 02:46:00,50.2,48.9,-100.00,SW,217,0.5,1.5,95,0.01,,,0.02,,2017-03-24 09:46:00,
2017-03-24 02:51:00,50.2,48.9,-100.00,SW,217,0.5,1.5,95,0.01,,,0.02,,2017-03-24 09:51:00,
2017-03-24 02:56:00,50.2,48.9,-100.00,SW,217,0.5,1.5,95,0.01,,,0.02,,2017-03-24 09:56:00,
2017-03-24 03:01:00,49.7,48.4,-100.00,East,97,1.7,5.9,95,0.00,,,0.04,,2017-03-24 10:01:00,
2017-03-24 03:06:00,49.7,48.4,-100.00,East,97,1.7,5.9,95,0.00,,,0.04,,2017-03-24 10:06:00,
2017-03-24 03:11:00,49.7,48.4,-100.00,East,97,1.7,5.9,95,0.00,,,0.04,,2017-03-24 10:11:00,
2017-03-24 03:16:00,49.7,48.4,-100.00,East,97,1.7,5.9,95,0.00,,,0.04,,2017-03-24 10:16:00,
2017-03-24 03:21:00,49.7,48.4,-100.00,East,97,1.7,5.9,95,0.00,,,0.04,,2017-03-24 10:21:00,
2017-03-24 03:26:00,49.7,48.4,-100.00,East,97,1.7,5.9,95,0.00,,,0.04,,2017-03-24 10:26:00,
2017-03-24 03:32:00,49.7,48.4,-100.00,East,97,1.7,5.9,95,0.00,,,0.04,,2017-03-24 10:32:00,
2017-03-24 03:41:00,49.7,48.4,-100.00,East,97,1.7,5.9,95,0.00,,,0.04,,2017-03-24 10:41:00,
2017-03-24 03:46:00,49.7,48.4,-100.00,East,97,1.7,5.9,95,0.00,,,0.04,,2017-03-24 10:46:00,
2017-03-24 03:51:00,49.7,48.4,-100.00,East,97,1.7,5.9,95,0.00,,,0.04,,2017-03-24 10:51:00,
2017-03-24 04:01:00,50.0,48.6,-100.00,ESE,106,2.7,6.2,95,0.01,,,0.07,,2017-03-24 11:01:00,
2017-03-24 04:06:00,50.0,48.6,-100.00,ESE,106,2.7,6.2,95,0.01,,,0.07,,2017-03-24 11:06:00,
2017-03-24 04:11:00,50.0,48.6,-100.00,ESE,106,2.7,6.2,95,0.01,,,0.07,,2017-03-24 11:11:00,
2017-03-24 04:16:00,50.0,48.6,-100.00,ESE,106,2.7,6.2,95,0.01,,,0.07,,2017-03-24 11:16:00,
2017-03-24 04:21:00,50.0,48.6,-100.00,ESE,106,2.7,6.2,95,0.01,,,0.07,,2017-03-24 11:21:00,
2017-03-24 04:26:00,50.0,48.6,-100.00,ESE,106,2.7,6.2,95,0.01,,,0.07,,2017-03-24 11:26:00,
2017-03-24 04:31:00,50.0,48.6,-100.00,ESE,106,2.7,6.2,95,0.01,,,0.07,,2017-03-24 11:31:00,
2017-03-24 04:36:00,50.0,48.6,-100.00,ESE,106,2.7,6.2,95,0.01,,,0.07,,2017-03-24 11:36:00,
2017-03-24 04:41:00,50.0,48.6,-100.00,ESE,106,2.7,6.2,95,0.01,,,0.07,,2017-03-24 11:41:00,
2017-03-24 04:46:00,50.0,48.6,-100.00,ESE,106,2.7,6.2,95,0.01,,,0.07,,2017-03-24 11:46:00,
2017-03-24 04:51:00,50.0,48.6,-100.00,ESE,106,2.7,6.2,95,0.01,,,0.07,,2017-03-24 11:51:00,
2017-03-24 04:56:00,50.0,48.6,-100.00,ESE,106,2.7,6.2,95,0.01,,,0.07,,2017-03-24 11:56:00,
2017-03-24 05:01:00,50.3,48.8,-100.00,ESE,121,3.2,9.4,94,0.01,,,0.12,,2017-03-24 12:01:00,
2017-03-24 05:06:00,50.3,48.8,-100.00,ESE,121,3.2,9.4,94,0.01,,,0.12,,2017-03-24 12:06:00,
2017-03-24 05:11:00,50.3,48.8,-100.00,ESE,121,3.2,9.4,94,0.01,,,0.12,,2017-03-24 12:11:00,
2017-03-24 05:16:00,50.3,48.8,-100.00,ESE,121,3.2,9.4,94,0.01,,,0.12,,2017-03-24 12:16:00,
2017-03-24 05:21:00,50.3,48.8,-100.00,ESE,121,3.2,9.4,94,0.01,,,0.12,,2017-03-24 12:21:00,
2017-03-24 05:26:00,50.3,48.8,-100.00,ESE,121,3.2,9.4,94,0.01,,,0.12,,2017-03-24 12:26:00,
2017-03-24 05:31:00,50.3,48.8,-100.00,ESE,121,3.2,9.4,94,0.01,,,0.12,,2017-03-24 12:31:00,
2017-03-24 05:36:00,50.3,48.8,-100.00,ESE,121,3.2,9.4,94,0.01,,,0.12,,2017-03-24 12:36:00,
2017-03-24 05:41:00,50.3,48.8,-100.00,ESE,121,3.2,9.4,94,0.01,,,0.12,,2017-03-24 12:41:00,
2017-03-24 05:46:00,50.3,48.8,-100.00,ESE,121,3.2,9.4,94,0.01,,,0.12,,2017-03-24 12:46:00,
2017-03-24 05:51:00,50.3,48.8,-100.00,ESE,121,3.2,9.4,94,0.01,,,0.12,,2017-03-24 12:51:00,
2017-03-24 05:56:00,50.3,48.8,-100.00,ESE,121,3.2,9.4,94,0.01,,,0.12,,2017-03-24 12:56:00,
2017-03-24 06:01:00,50.3,48.9,-100.00,ESE,111,7.0,17.7,95,0.03,,,0.24,,2017-03-24 13:01:00,
2017-03-24 06:06:00,50.3,48.9,-100.00,ESE,111,7.0,17.7,95,0.03,,,0.24,,2017-03-24 13:06:00,
2017-03-24 06:11:00,50.3,48.9,-100.00,ESE,111,7.0,17.7,95,0.03,,,0.24,,2017-03-24 13:11:00,
2017-03-24 06:16:00,50.3,48.9,-100.00,ESE,111,7.0,17.7,95,0.03,,,0.24,,2017-03-24 13:16:00,
2017-03-24 06:21:00,50.3,48.9,-100.00,ESE,111,7.0,17.7,95,0.03,,,0.24,,2017-03-24 13:21:00,
2017-03-24 06:26:00,50.3,48.9,-100.00,ESE,111,7.0,17.7,95,0.03,,,0.24,,2017-03-24 13:26:00,
2017-03-24 06:31:00,50.3,48.9,-100.00,ESE,111,7.0,17.7,95,0.03,,,0.24,,2017-03-24 13:31:00,
2017-03-24 06:36:00,50.3,48.9,-100.00,ESE,111,7.0,17.7,95,0.03,,,0.24,,2017-03-24 13:36:00,
2017-03-24 06:41:00,50.3,48.9,-100.00,ESE,111,7.0,17.7,95,0.03,,,0.24,,2017-03-24 13:41:00,
2017-03-24 06:46:00,50.3,48.9,-100.00,ESE,111,7.0,17.7,95,0.03,,,0.24,,2017-03-24 13:46:00,
2017-03-24 06:51:00,50.3,48.9,-100.00,ESE,111,7.0,17.7,95,0.03,,,0.24,,2017-03-24 13:51:00,
2017-03-24 06:56:00,50.3,48.9,-100.00,ESE,111,7.0,17.7,95,0.03,,,0.24,,2017-03-24 13:56:00,
2017-03-24 07:01:00,50.2,48.7,-100.00,ESE,117,8.2,18.1,95,0.05,,,0.38,,2017-03-24 14:01:00,
2017-03-24 07:06:00,50.2,48.7,-100.00,ESE,117,8.2,18.1,95,0.05,,,0.38,,2017-03-24 14:06:00,
2017-03-24 07:11:00,50.2,48.7,-100.00,ESE,117,8.2,18.1,95,0.05,,,0.38,,2017-03-24 14:11:00,
2017-03-24 07:16:00,50.2,48.7,-100.00,ESE,117,8.2,18.1,95,0.05,,,0.38,,2017-03-24 14:16:00,
2017-03-24 07:21:00,50.2,48.7,-100.00,ESE,117,8.2,18.1,95,0.05,,,0.38,,2017-03-24 14:21:00,
2017-03-24 07:26:00,50.2,48.7,-100.00,ESE,117,8.2,18.1,95,0.05,,,0.38,,2017-03-24 14:26:00,
2017-03-24 07:31:00,50.2,48.7,-100.00,ESE,117,8.2,18.1,95,0.05,,,0.38,,2017-03-24 14:31:00,
2017-03-24 07:36:00,50.2,48.7,-100.00,ESE,117,8.2,18.1,95,0.05,,,0.38,,2017-03-24 14:36:00,
2017-03-24 07:41:00,50.2,48.7,-100.00,ESE,117,8.2,18.1,95,0.05,,,0.38,,2017-03-24 14:41:00,
2017-03-24 07:46:00,50.2,48.7,-100.00,ESE,117,8.2,18.1,95,0.05,,,0.38,,2017-03-24 14:46:00,
2017-03-24 07:51:00,50.2,48.7,-100.00,ESE,117,8.2,18.1,95,0.05,,,0.38,,2017-03-24 14:51:00,
2017-03-24 08:01:00,49.4,48.0,-100.00,ESE,120,6.2,17.2,95,0.06,,,0.61,,2017-03-24 15:01:00,
2017-03-24 08:06:00,49.4,48.0,-100.00,ESE,120,6.2,17.2,95,0.06,,,0.61,,2017-03-24 15:06:00,
2017-03-24 08:11:00,49.4,48.0,-100.00,ESE,120,6.2,17.2,95,0.06,,,0.61,,2017-03-24 15:11:00,
2017-03-24 08:16:00,49.4,48.0,-100.00,ESE,120,6.2,17.2,95,0.06,,,0.61,,2017-03-24 15:16:00,
2017-03-24 08:21:00,49.4,48.0,-100.00,ESE,120,6.2,17.2,95,0.06,,,0.61,,2017-03-24 15:21:00,
2017-03-24 08:26:00,49.4,48.0,-100.00,ESE,120,6.2,17.2,95,0.06,,,0.61,,2017-03-24 15:26:00,
2017-03-24 08:31:00,49.4,48.0,-100.00,ESE,120,6.2,17.2,95,0.06,,,0.61,,2017-03-24 15:31:00,
2017-03-24 08:36:00,49.4,48.0,-100.00,ESE,120,6.2,17.2,95,0.06,,,0.61,,2017-03-24 15:36:00,
2017-03-24 08:41:00,49.4,48.0,-100.00,ESE,120,6.2,17.2,95,0.06,,,0.61,,2017-03-24 15:41:00,
2017-03-24 08:46:00,49.4,48.0,-100.00,ESE,120,6.2,17.2,95,0.06,,,0.61,,2017-03-24 15:46:00,
2017-03-24 08:51:00,49.4,48.0,-100.00,ESE,120,6.2,17.2,95,0.06,,,0.61,,2017-03-24 15:51:00,
2017-03-24 08:56:00,49.4,48.0,-100.00,ESE,120,6.2,17.2,95,0.06,,,0.61,,2017-03-24 15:56:00,
2017-03-24 09:01:00,48.7,47.4,-100.00,SE,131,5.3,11.6,95,0.08,,,0.89,,2017-03-24 16:01:00,
2017-03-24 09:11:00,48.7,47.4,-100.00,SE,131,5.3,11.6,95,0.08,,,0.89,,2017-03-24 16:11:00,
2017-03-24 09:16:00,48.7,47.4,-100.00,SE,131,5.3,11.6,95,0.08,,,0.89,,2017-03-24 16:16:00,
2017-03-24 09:26:00,48.7,47.4,-100.00,SE,131,5.3,11.6,95,0.08,,,0.89,,2017-03-24 16:26:00,
2017-03-24 09:31:00,48.7,47.4,-100.00,SE,131,5.3,11.6,95,0.08,,,0.89,,2017-03-24 16:31:00,
2017-03-24 09:36:00,48.7,47.4,-100.00,SE,131,5.3,11.6,95,0.08,,,0.89,,2017-03-24 16:36:00,
2017-03-24 09:46:00,48.7,47.4,-100.00,SE,131,5.3,11.6,95,0.08,,,0.89,,2017-03-24 16:46:00,
2017-03-24 09:51:00,48.7,47.4,-100.00,SE,131,5.3,11.6,95,0.08,,,0.89,,2017-03-24 16:51:00,
2017-03-24 09:56:00,48.7,47.4,-100.00,SE,131,5.3,11.6,95,0.08,,,0.89,,2017-03-24 16:56:00,
2017-03-24 10:01:00,48.7,47.6,-100.00,ESE,115,5.3,17.4,96,0.04,,,1.15,,2017-03-24 17:01:00,
2017-03-24 10:06:00,48.7,47.6,-100.00,ESE,115,5.3,17.4,96,0.04,,,1.15,,2017-03-24 17:06:00,
2017-03-24 10:11:00,48.7,47.6,-100.00,ESE,115,5.3,17.4,96,0.04,,,1.15,,2017-03-24 17:11:00,
2017-03-24 10:16:00,48.7,47.6,-100.00,ESE,115,5.3,17.4,96,0.04,,,1.15,,2017-03-24 17:16:00,
2017-03-24 10:21:00,48.7,47.6,-100.00,ESE,115,5.3,17.4,96,0.04,,,1.15,,2017-03-24 17:21:00,
2017-03-24 10:26:00,48.7,47.6,-100.00,ESE,115,5.3,17.4,96,0.04,,,1.15,,2017-03-24 17:26:00,
2017-03-24 10:31:00,48.7,47.6,-100.00,ESE,115,5.3,17.4,96,0.04,,,1.15,,2017-03-24 17:31:00,
2017-03-24 10:36:00,48.7,47.6,-100.00,ESE,115,5.3,17.4,96,0.04,,,1.15,,2017-03-24 17:36:00,
2017-03-24 10:41:00,48.7,47.6,-100.00,ESE,115,5.3,17.4,96,0.04,,,1.15,,2017-03-24 17:41:00,
2017-03-24 10:46:00,48.7,47.6,-100.00,ESE,115,5.3,17.4,96,0.04,,,1.15,,2017-03-24 17:46:00,
2017-03-24 10:51:00,48.7,47.6,-100.00,ESE,115,5.3,17.4,96,0.04,,,1.15,,2017-03-24 17:51:00,
2017-03-24 11:01:00,49.5,48.6,-100.00,ESE,116,4.7,11.2,97,0.04,,,1.32,,2017-03-24 18:01:00,
2017-03-24 11:11:00,49.5,48.6,-100.00,ESE,116,4.7,11.2,97,0.04,,,1.32,,2017-03-24 18:11:00,
2017-03-24 11:16:00,49.5,48.6,-100.00,ESE,116,4.7,11.2,97,0.04,,,1.32,,2017-03-24 18:16:00,
2017-03-24 11:21:00,49.5,48.6,-100.00,ESE,116,4.7,11.2,97,0.04,,,1.32,,2017-03-24 18:21:00,
2017-03-24 11:26:00,49.5,48.6,-100.00,ESE,116,4.7,11.2,97,0.04,,,1.32,,2017-03-24 18:26:00,
2017-03-24 11:31:00,49.5,48.6,-100.00,ESE,116,4.7,11.2,97,0.04,,,1.32,,2017-03-24 18:31:00,
2017-03-24 11:36:00,49.5,48.6,-100.00,ESE,116,4.7,11.2,97,0.04,,,1.32,,2017-03-24 18:36:00,
2017-03-24 11:41:00,49.5,48.6,-100.00,ESE,116,4.7,11.2,97,0.04,,,1.32,,2017-03-24 18:41:00,
2017-03-24 11:46:00,49.5,48.6,-100.00,ESE,116,4.7,11.2,97,0.04,,,1.32,,2017-03-24 18:46:00,
2017-03-24 11:51:00,49.5,48.6,-100.00,ESE,116,4.7,11.2,97,0.04,,,1.32,,2017-03-24 18:51:00,
2017-03-24 11:56:00,49.5,48.6,-100.00,ESE,116,4.7,11.2,97,0.04,,,1.32,,2017-03-24 18:56:00,
2017-03-24 12:01:00,52.9,52.2,-100.00,SE,143,1.9,3.8,98,0.01,,,1.39,,2017-03-24 19:01:00,
2017-03-24 12:06:00,52.9,52.2,-100.00,SE,143,1.9,3.8,98,0.01,,,1.39,,2017-03-24 19:06:00,
2017-03-24 12:11:00,52.9,52.2,-100.00,SE,143,1.9,3.8,98,0.01,,,1.39,,2017-03-24 19:11:00,
2017-03-24 12:16:00,52.9,52.2,-100.00,SE,143,1.9,3.8,98,0.01,,,1.39,,2017-03-24 19:16:00,
2017-03-24 12:21:00,52.9,52.2,-100.00,SE,143,1.9,3.8,98,0.01,,,1.39,,2017-03-24 19:21:00,
2017-03-24 12:26:00,52.9,52.2,-100.00,SE,143,1.9,3.8,98,0.01,,,1.39,,2017-03-24 19:26:00,
2017-03-24 12:31:00,52.9,52.2,-100.00,SE,143,1.9,3.8,98,0.01,,,1.39,,2017-03-24 19:31:00,
2017-03-24 12:36:00,52.9,52.2,-100.00,SE,143,1.9,3.8,98,0.01,,,1.39,,2017-03-24 19:36:00,
2017-03-24 12:41:00,52.9,52.2,-100.00,SE,143,1.9,3.8,98,0.01,,,1.39,,2017-03-24 19:41:00,
2017-03-24 12:46:00,52.9,52.2,-100.00,SE,143,1.9,3.8,98,0.01,,,1.39,,2017-03-24 19:46:00,
2017-03-24 12:51:00,52.9,52.2,-100.00,SE,143,1.9,3.8,98,0.01,,,1.39,,2017-03-24 19:51:00,
2017-03-24 12:56:00,52.9,52.2,-100.00,SE,143,1.9,3.8,98,0.01,,,1.39,,2017-03-24 19:56:00,
2017-03-24 13:01:00,55.0,54.0,-100.00,SW,214,2.8,7.8,96,0.00,,,1.42,,2017-03-24 20:01:00,
2017-03-24 13:11:00,55.0,54.0,-100.00,SW,214,2.8,7.8,96,0.00,,,1.42,,2017-03-24 20:11:00,
2017-03-24 13:16:00,55.0,54.0,-100.00,SW,214,2.8,7.8,96,0.00,,,1.42,,2017-03-24 20:16:00,
2017-03-24 13:21:00,55.0,54.0,-100.00,SW,214,2.8,7.8,96,0.00,,,1.42,,2017-03-24 20:21:00,
2017-03-24 13:26:00,55.0,54.0,-100.00,SW,214,2.8,7.8,96,0.00,,,1.42,,2017-03-24 20:26:00,
2017-03-24 13:31:00,55.0,54.0,-100.00,SW,214,2.8,7.8,96,0.00,,,1.42,,2017-03-24 20:31:00,
2017-03-24 13:36:00,55.0,54.0,-100.00,SW,214,2.8,7.8,96,0.00,,,1.42,,2017-03-24 20:36:00,
2017-03-24 13:41:00,55.0,54.0,-100.00,SW,214,2.8,7.8,96,0.00,,,1.42,,2017-03-24 20:41:00,
2017-03-24 13:46:00,55.0,54.0,-100.00,SW,214,2.8,7.8,96,0.00,,,1.42,,2017-03-24 20:46:00,
2017-03-24 13:51:00,55.0,54.0,-100.00,SW,214,2.8,7.8,96,0.00,,,1.42,,2017-03-24 20:51:00,
2017-03-24 13:56:00,55.0,54.0,-100.00,SW,214,2.8,7.8,96,0.00,,,1.42,,2017-03-24 20:56:00,
2017-03-24 14:01:00,56.6,53.4,-100.00,SSW,211,5.1,10.4,89,0.00,,,1.42,,2017-03-24 21:01:00,
2017-03-24 14:06:00,56.6,53.4,-100.00,SSW,211,5.1,10.4,89,0.00,,,1.42,,2017-03-24 21:06:00,
2017-03-24 14:11:00,56.6,53.4,-100.00,SSW,211,5.1,10.4,89,0.00,,,1.42,,2017-03-24 21:11:00,
2017-03-24 14:16:00,56.6,53.4,-100.00,SSW,211,5.1,10.4,89,0.00,,,1.42,,2017-03-24 21:16:00,
2017-03-24 14:21:00,56.6,53.4,-100.00,SSW,211,5.1,10.4,89,0.00,,,1.42,,2017-03-24 21:21:00,
2017-03-24 14:26:00,56.6,53.4,-100.00,SSW,211,5.1,10.4,89,0.00,,,1.42,,2017-03-24 21:26:00,